Weather Roundup
Issued by NWS

Home | Current Version | Previous Version | Graphics & Text | Print | Product List | Glossary Off
Versions: 1 2 3 4 5 6 7 8 9 10 11 12 13 14 15 16 17 18 19 20 21 22 23 24 25 26 27 28 29 30 31 32 33 34 35 36 37 38 39 40 41 42 43 44 45 46 47 48 49 50

000
NZUS93 KARX 090759
HRRWXR

CURRENT HOURLY OBSERVATIONS ACROSS
MUCH OF THE UPPER MISSISSIPPI VALLEY
NATIONAL WEATHER SERVICE LA CROSSE WI
200 AM CST TUE FEB 09 2016


...SOUTHEAST MINNESOTA...


CITY           SKY/WX    TMP DP  RH WIND       PRES   REMARKS
ROCHESTER      CLOUDY    10   4  76 N28G33    29.91R BLWGSNOWWCI -12
ROCHESTER/MAYO CLOUDY    11   4  75 NW14G23   29.92S WCI  -5
WINONA         CLOUDY    14   9  79 N9        29.95R WCI   2
AUSTIN         CLOUDY    10   5  79 N14       29.93R WCI  -5
ALBERT LEA     CLOUDY    10   5  79 N17G24    29.94S WCI  -7
DODGE CENTER   CLOUDY     9   3  78 N14G21    29.91S WCI  -8
PRESTON        CLOUDY     9   3  75 N18G29    29.89S HAZE    WCI  -9
OWATONNA       CLOUDY    10   3  72 NW16G24   29.96R WCI  -7
FARIBAULT      CLOUDY    10   3  72 NW16      29.98R WCI  -7
$$

...ELSEWHERE IN MINNESOTA...


CITY           SKY/WX    TMP DP  RH WIND       PRES   REMARKS
MINNEAPOLIS    FLURRIES  11   2  67 NW14G25   30.00S WCI  -5
INTNL FALLS    CLOUDY     2  -4  76 N16       30.07R WCI -18
DULUTH         CLOUDY     2  -5  72 N15       29.92F WCI -17
RED WING       CLOUDY    10   0  61 N8        29.98R WCI  -1
REDWOOD FALLS  MOCLDY     8   3  80 NW15G22   30.08S WCI  -9
MANKATO        CLOUDY    12   3  67 NW20      29.99F WCI  -6
WORTHINGTON    CLOUDY     7   0  72 N23G32    30.05S VSB 1   WCI -14
FAIRMONT       CLOUDY     9   0  66 NW21G26   29.99F WCI -11
$$

...SOUTHWEST WISCONSIN...


CITY           SKY/WX    TMP DP  RH WIND       PRES   REMARKS
LA CROSSE      CLOUDY    11   1  64 N18G28    29.92R WCI  -7
PRAIRIE DU CHI MIX PCPN  14   6  70 NW13      29.89S WCI   0
BOSCOBEL       CLOUDY    14   5  67 N15G22    29.88R WCI  -1
LONE ROCK      CLOUDY    13   5  70 NW13G21   29.85R WCI  -2
PLATTEVILLE    PTCLDY    14  10  82 NW16      29.81S WCI  -2
FORT MC COY    FLURRIES  10   5  80 NW10      29.89S WCI  -4
CAMP DOUGLAS   CLOUDY     9   7  92 NW13      29.84R WCI  -7
VIROQUA        CLOUDY    10   4  77 N16       29.83S WCI  -7
WIS DELLS      FLURRIES  11   5  76 NW12G17   29.81R WCI  -3
$$

...ELSEWHERE IN WISCONSIN...


CITY           SKY/WX    TMP DP  RH WIND       PRES   REMARKS
MILWAUKEE      LGT SNOW  19  14  81 NW10      29.72S WCI   7
MADISON        LGT SNOW  14   8  77 NW8G20    29.79R WCI   3
GREEN BAY      LGT SNOW  16  11  80 NW10      29.76R WCI   4
EAU CLAIRE     NOT AVBL
BLACK RVR FLS  FLURRIES  10   3  72 NW9G17    29.89R WCI  -3
MEDFORD        CLOUDY     7   2  82 NW13      29.79R WCI  -9
WAUSAU         FLURRIES  10   3  73 NW9       29.76S WCI  -3
WIS RAPIDS     CLEAR      9   1  70 NW9       29.83R WCI  -4
MARSHFIELD     PTCLDY     7   0  73 NW17      29.79S WCI -12
RICE LAKE      MOCLDY     6  -1  73 NW10G17   29.95R WCI  -9
$$

...NORTHEAST IOWA...


CITY           SKY/WX    TMP DP  RH WIND       PRES   REMARKS
WATERLOO       CLOUDY    13   7  77 NW20      29.92R WCI  -5
DUBUQUE        CLOUDY    13   8  81 N15       29.82S WCI  -3
DECORAH        LGT SNOW  12   9  85 N8        29.87S WCI   1
MASON CITY     LGT SNOW  11   6  81 N24G32    29.96R WCI  -9
CHARLES CITY   LGT SNOW  12  10  92 NW20      29.92S WCI  -6
OELWEIN        CLOUDY    14   7  73 N20G26    29.89S WCI  -3
$$

...ELSEWHERE IN IOWA...


CITY           SKY/WX    TMP DP  RH WIND       PRES   REMARKS
DES MOINES     LGT SNOW  14   6  70 N17G25    30.01R WCI  -3
IOWA CITY      LGT SNOW  16  11  80 NW13G22   29.91S WCI   2
FORT DODGE     CLOUDY    10   1  67 NW13G23   30.02S WCI  -5
MARSHALLTOWN   LGT SNOW  12   7  80 NW20G30   29.95S WCI  -6
CEDAR RAPIDS   LGT SNOW  14  11  87 NW18      29.88F FOG     WCI  -3
$$

...NORTHERN ILLINOIS...


CITY           SKY/WX    TMP DP  RH WIND       PRES   REMARKS
CHICAGO-OHARE  LGT SNOW  19  15  84 NW14      29.72S FOG     WCI   6
CHICAGO-MIDWAY LGT SNOW  21  14  74 NW12      29.73S FOG     WCI   9
MOLINE         LGT SNOW  17  10  74 NW14G23   29.86S WCI   3
ROCKFORD       FLURRIES  18  10  71 N13       29.79S WCI   5
PEORIA         LGT SNOW  17  11  77 NW9       29.83F WCI   6
$$

NOTE: "FAIR" INDICATES FEW OR NO CLOUDS BELOW 12,000 FEET WITH NO
SIGNIFICANT WEATHER AND/OR OBSTRUCTIONS TO VISIBILITY. WIND
SPEEDS ARE IN MILES-PER-HOUR.




USA.gov is the U.S. government's official web portal to all federal, state and local government web resources and services.